Regional Weather Roundup
Issued by NWS Upton, NY

Home | Current Version | Previous Version | Text Only | Print | Product List | Glossary On
Versions: 1 2 3 4 5 6 7 8 9 10 11 12 13 14 15 16 17 18 19 20 21 22 23 24 25 26 27 28 29 30 31 32 33 34 35 36 37 38 39 40 41 42 43 44 45 46 47 48 49 50
000
ASUS41 KOKX 260105
RWROKX
REGIONAL WEATHER ROUNDUP
NATIONAL WEATHER SERVICE NEW YORK NY
900 PM EDT FRI JUL 25 2014

NOTE: "FAIR" INDICATES FEW OR NO CLOUDS BELOW 12,000 FEET WITH NO
SIGNIFICANT WEATHER AND/OR OBSTRUCTIONS TO VISIBILITY.

NYZ071-072-176-178-NJZ106-104-260200-
NEW YORK CITY METRO AREA


CITY           SKY/WX    TMP DP  RH WIND       PRES   REMARKS
CENTRAL PARK   PTCLDY    75  57  53 VRB6G17   30.03R
LAGUARDIA APRT PTCLDY    77  56  48 SW10      30.00R
KENNEDY INTL   PTCLDY    73  62  68 S12       30.02R
NEWARK/LIBERTY PTCLDY    75  59  57 SW15      30.00R
BRNX BOT. GARD   N/A     73  59  60 E5        30.01F
TETERBORO      PTCLDY    79  58  48 SW9       29.99R
$$

NYZ177-179-078>081-260200-
LONG ISLAND NEW YORK

CITY           SKY/WX    TMP DP  RH WIND       PRES   REMARKS
FARMINGDALE    CLEAR     71  62  73 SW7       30.02R
ISLIP          PTCLDY    72  61  68 SW8       30.00R
SHIRLEY        CLEAR     70  60  70 SW6       30.02R
WESTHAMPTON    CLEAR     69  61  75 SW5       30.02R
MONTAUK POINT    N/A     70  61  73 SW6       30.01R
$$

NYZ052-065-067-260200-
HUDSON VALLEY

CITY           SKY/WX    TMP DP  RH WIND       PRES   REMARKS
WHITE PLAINS   CLEAR     71  58  63 S5        30.01R
NEWBURGH       CLEAR     70  59  68 CALM      30.02R
MONTGOMERY     CLEAR     66  59  78 CALM      30.00R
POUGHKEEPSIE   CLEAR     69  61  75 CALM      29.98R
ALBANY         PTCLDY    72  59  63 CALM      29.97R
$$

NJZ001-105-106-008-010-013-015-019>022-104-260200-
NEW JERSEY

CITY           SKY/WX    TMP DP  RH WIND       PRES   REMARKS
NEWARK/LIBERTY PTCLDY    75  59  57 SW15      30.00R
TETERBORO      PTCLDY    79  58  48 SW9       29.99R
CALDWELL       CLEAR     74  56  53 CALM      30.01R
MORRISTOWN     CLEAR     66  61  82 W3        30.01R
SOMERVILLE     NOT AVBL
LINDEN         FAIR      76  58  53 SW5       30.03R
SUSSEX         CLEAR     67  61  81 CALM      30.01R
ANDOVER          N/A     64  60  87 CALM      30.02R
TRENTON        CLEAR     74  62  66 S8        30.01R
MILLVILLE      CLEAR     68  58  70 S3        30.03R
ATLANTIC CITY  CLEAR     71  64  78 S6        30.04R
WRIGHTSTOWN    CLEAR     71  64  78 SE8       30.01R
TOMS RIVER     CLEAR     70  63  78 S3        30.04R
BELMAR         CLEAR     72  59  64 S5        30.03R
$$

PAZ047>061-062-071-260200-
EASTERN PENNSYLVANIA

CITY           SKY/WX    TMP DP  RH WIND       PRES   REMARKS
PHILADELPHIA   PTCLDY    77  57  50 SW12      30.02R
ALLENTOWN      CLEAR     68  54  60 SW5       30.01R
SCRANTON       CLEAR     70  52  52 S3        30.01S
$$

CTZ002-004>006-009-010-012-RIZ004-006-007-MAZ004-011-015-260200-
SOUTHERN NEW ENGLAND
 IN CT

CITY           SKY/WX    TMP DP  RH WIND       PRES   REMARKS
BRADLEY INTL   CLEAR     72  60  66 W3        29.96R
HARTFORD       CLEAR     73  60  63 S7        29.97R
DANBURY        CLEAR     65  58  78 SW3       30.02R
WTRBRY/OXFORD  NOT AVBL
BRIDGEPORT     CLEAR     75  63  66 S10       29.99R
MERIDEN        CLEAR     69  60  73 CALM      29.99R
NEW HAVEN      CLEAR     76  59  55 SW5       29.99R
CHESTER        FAIR      70  57  64 SW5       30.01R
GROTON         CLEAR     69  63  81 SW8       29.99R
WILLIMANTIC    CLEAR     72  60  66 S3        29.99R

 IN RI

CITY           SKY/WX    TMP DP  RH WIND       PRES   REMARKS
PROVIDENCE     CLEAR     70  60  70 SW7       29.98R
BLOCK ISLAND   CLEAR     70  61  73 SW10      30.00R
WESTERLY       CLEAR     71  63  75 SW5       30.00R

 IN MA

CITY           SKY/WX    TMP DP  RH WIND       PRES   REMARKS
BOSTON         CLEAR     76  57  51 SW8       29.95R
WORCESTER      CLEAR     68  57  68 W7        30.00R
WESTFIELD      CLEAR     66  62  87 CALM      29.97R
PROVINCETOWN   CLEAR     70  63  78 SW9       29.98R
NANTUCKET      CLEAR     64  61  90 SW7       30.00R
$$

ANZ330-335-338-340-345-350-353-355-260200-
COASTAL MARINE OBSERVATIONS


STATION/POSITION TIME  SKY/WX   TEMP    WIND        PRES    VSBY  WAVE
                                AIR SEA DIR/SP/G                  HT/PER
                 (UTC)          (F)     (DEG/KT/KT) (MB)    (MI)  (FT/S)
NY HARB ENTRANCE NOT AVBL
4S FIRE IS       NOT AVBL
23SW MTP         0100            71 72              1015.5          2/ 7
HUDSON CANYON    0100            72 75  220/  8/  8 1016.5          2/ 7
EXECUTION ROCKS  0100            74 72  180/ 12/ 14   N/A
WESTERN LI SOUND 0100            74     190/ 12/ 14   N/A           1
CENTRAL LI SOUND 0000            74 73  210/ 12/ 14   N/A           1
EASTERN LI SOUND 0000            69 67  200/  8/ 10   N/A
ROBBINS REEF     0100            76     210/ 14/ 17   N/A
$$


>>>>>>>>>>>>>>>>>>>>>>>>>>>> KEY <<<<<<<<<<<<<<<<<<<<<<<<<<<
>                                                          <
>     SKY/WX - SKY CONDITION/PRESENT WEATHER               <
>     TMP    - TEMPERATURE IN FAHRENHEIT                   <
>     DP     - DEWPOINT IN FAHRENHEIT                      <
>     RH     - RELATIVE HUMIDITY IN PERCENT                <
>     WIND   - DIRECTION AND SPEED IN MPH                  <
>     PRES   - MEAN SEA LEVEL PRESSURE IN INCHES OF HG     <
>     WCI    - WIND CHILL INDEX                            <
>     VSB    - VISIBILITY IN MILES                         <
>     HX     - HEAT INDEX                                  <
>     TC     - TEMPERATURE IN CELSIUS                      <
>     VRB    - VARIABLE WIND DIRECTION                     <
>                                                          <
>>>>>>>>>>>>>>>>>>>>>>>>>>>> KEY <<<<<<<<<<<<<<<<<<<<<<<<<<<




USA.gov is the U.S. government's official web portal to all federal, state and local government web resources and services.